Total_Precipitation_Accumulation
0.56 0.69 0.73 0.58 0.52 0.48 0.42 0.40 0.32 0.21 0.19 0.19 0.21 0.19 0.11 0.07 0.08 0.08 0.07 0.08 0.08 0.07 0.08 0.13 0.19 0.27 0.31 0.32 0.38 0.50 0.61 0.75 0.80 0.86 0.85 0.83 0.89 0.88 0.81 0.74 0.77 0.85 0.78 0.67
0.69 0.56 0.38 0.33 0.34 0.43 0.46 0.46 0.35 0.23 0.22 0.26 0.24 0.19 0.11 0.07 0.07 0.08 0.08 0.07 0.07 0.08 0.09 0.14 0.19 0.25 0.29 0.33 0.37 0.48 0.62 0.73 0.77 0.77 0.83 0.82 0.85 0.85 0.86 0.81 0.80 0.85 0.89 0.81
0.58 0.36 0.26 0.37 0.41 0.51 0.51 0.43 0.32 0.27 0.27 0.31 0.34 0.28 0.14 0.08 0.08 0.10 0.11 0.11 0.10 0.10 0.11 0.15 0.19 0.22 0.25 0.30 0.34 0.40 0.56 0.73 0.79 0.77 0.87 0.94 1.01 1.05 1.01 0.93 0.85 0.86 0.89 0.86
0.46 0.27 0.29 0.42 0.45 0.47 0.49 0.28 0.25 0.29 0.40 0.42 0.38 0.44 0.21 0.12 0.10 0.11 0.13 0.14 0.14 0.12 0.13 0.18 0.21 0.25 0.27 0.32 0.36 0.38 0.47 0.63 0.82 0.84 0.87 0.93 0.98 0.99 1.03 0.95 0.86 0.85 0.90 0.92
0.50 0.29 0.30 0.42 0.36 0.34 0.37 0.26 0.28 0.34 0.44 0.47 0.37 0.47 0.28 0.16 0.14 0.11 0.10 0.11 0.12 0.12 0.15 0.20 0.23 0.29 0.32 0.39 0.46 0.45 0.49 0.57 0.76 0.79 0.78 0.86 0.89 0.91 0.99 1.02 0.95 0.92 0.93 0.97
0.41 0.29 0.31 0.29 0.25 0.27 0.33 0.38 0.45 0.50 0.67 0.71 0.30 0.33 0.32 0.26 0.23 0.16 0.13 0.14 0.13 0.14 0.17 0.21 0.27 0.34 0.39 0.44 0.55 0.54 0.58 0.58 0.69 0.82 0.77 0.77 0.81 0.86 0.92 0.98 1.03 1.02 1.01 1.00
0.51 0.39 0.34 0.29 0.35 0.42 0.52 0.76 1.07 1.07 1.00 0.57 0.14 0.20 0.30 0.25 0.23 0.18 0.15 0.18 0.17 0.17 0.19 0.23 0.30 0.38 0.40 0.43 0.57 0.59 0.60 0.62 0.63 0.77 0.83 0.76 0.77 0.80 0.81 0.88 0.92 0.98 1.03 1.01
0.59 0.49 0.38 0.33 0.41 0.50 0.51 0.65 0.84 0.76 0.46 0.18 0.09 0.16 0.21 0.19 0.15 0.13 0.14 0.16 0.18 0.17 0.18 0.22 0.27 0.34 0.39 0.39 0.50 0.60 0.62 0.65 0.63 0.71 0.84 0.84 0.82 0.84 0.79 0.83 0.90 0.89 0.91 0.92
0.57 0.37 0.24 0.25 0.24 0.28 0.38 0.43 0.40 0.52 0.34 0.20 0.14 0.11 0.14 0.13 0.10 0.11 0.12 0.14 0.18 0.20 0.21 0.23 0.26 0.29 0.32 0.38 0.44 0.51 0.63 0.68 0.69 0.69 0.82 0.95 1.00 0.92 0.83 0.80 0.83 0.84 0.81 0.81
0.65 0.46 0.22 0.25 0.36 0.34 0.35 0.40 0.53 0.71 0.55 0.29 0.14 0.14 0.23 0.19 0.16 0.14 0.13 0.14 0.14 0.19 0.25 0.28 0.28 0.31 0.32 0.34 0.41 0.45 0.57 0.68 0.72 0.69 0.76 0.90 1.11 1.12 0.99 0.93 0.83 0.80 0.78 0.77
0.58 0.61 0.36 0.34 0.49 0.47 0.39 0.49 0.65 0.70 0.48 0.35 0.21 0.17 0.23 0.22 0.19 0.15 0.12 0.10 0.12 0.16 0.20 0.24 0.27 0.33 0.37 0.36 0.40 0.45 0.51 0.61 0.68 0.66 0.71 0.81 0.97 1.19 1.20 1.10 0.98 0.84 0.79 0.76
0.58 0.69 0.51 0.32 0.30 0.32 0.36 0.42 0.51 0.64 0.47 0.26 0.22 0.14 0.10 0.13 0.15 0.12 0.11 0.09 0.11 0.14 0.17 0.19 0.24 0.32 0.37 0.38 0.40 0.43 0.48 0.56 0.63 0.64 0.68 0.75 0.82 0.99 1.21 1.15 1.03 0.91 0.84 0.80
0.91 1.08 0.85 0.57 0.47 0.44 0.51 0.45 0.43 0.45 0.45 0.30 0.22 0.11 0.06 0.07 0.10 0.09 0.09 0.09 0.11 0.13 0.17 0.19 0.24 0.29 0.34 0.40 0.43 0.42 0.45 0.52 0.57 0.63 0.67 0.68 0.74 0.83 0.95 1.10 1.05 0.96 0.89 0.83
1.06 1.15 0.82 0.64 0.50 0.46 0.46 0.35 0.35 0.50 0.58 0.31 0.14 0.09 0.06 0.09 0.13 0.12 0.11 0.11 0.12 0.12 0.16 0.21 0.25 0.27 0.31 0.39 0.46 0.45 0.48 0.51 0.50 0.57 0.64 0.62 0.62 0.70 0.75 0.87 1.04 1.05 0.96 0.87
0.93 0.94 0.46 0.26 0.18 0.19 0.22 0.20 0.21 0.33 0.34 0.25 0.12 0.10 0.11 0.12 0.14 0.15 0.17 0.17 0.15 0.13 0.16 0.22 0.26 0.27 0.32 0.41 0.50 0.52 0.49 0.45 0.42 0.46 0.55 0.58 0.62 0.69 0.71 0.71 0.83 1.01 0.98 0.85
0.91 0.84 0.41 0.22 0.14 0.14 0.16 0.13 0.14 0.15 0.14 0.12 0.08 0.09 0.11 0.12 0.11 0.13 0.16 0.18 0.19 0.18 0.19 0.22 0.26 0.27 0.33 0.41 0.50 0.59 0.52 0.46 0.40 0.42 0.49 0.53 0.61 0.72 0.74 0.70 0.74 0.84 0.92 0.88
0.87 0.85 0.67 0.34 0.14 0.27 0.29 0.15 0.14 0.14 0.12 0.14 0.16 0.13 0.11 0.12 0.12 0.15 0.18 0.20 0.21 0.22 0.23 0.24 0.27 0.31 0.37 0.40 0.48 0.56 0.54 0.50 0.42 0.42 0.47 0.51 0.53 0.66 0.73 0.72 0.77 0.79 0.82 0.87
0.62 0.77 0.93 0.58 0.39 0.59 0.23 0.08 0.09 0.11 0.13 0.15 0.14 0.12 0.11 0.12 0.13 0.14 0.19 0.23 0.24 0.24 0.24 0.25 0.28 0.35 0.35 0.38 0.40 0.46 0.49 0.47 0.44 0.44 0.49 0.53 0.50 0.54 0.66 0.75 0.75 0.75 0.74 0.75
0.32 0.66 1.08 0.91 0.64 0.32 0.12 0.10 0.11 0.14 0.16 0.12 0.10 0.10 0.09 0.10 0.09 0.10 0.11 0.16 0.23 0.24 0.23 0.25 0.29 0.33 0.34 0.35 0.34 0.40 0.44 0.41 0.44 0.50 0.52 0.51 0.47 0.47 0.56 0.65 0.69 0.71 0.70 0.64
0.31 0.63 1.17 1.05 0.76 0.31 0.16 0.12 0.09 0.12 0.25 0.13 0.10 0.11 0.10 0.11 0.17 0.14 0.10 0.15 0.22 0.20 0.20 0.23 0.26 0.26 0.30 0.33 0.33 0.37 0.40 0.36 0.39 0.45 0.51 0.47 0.42 0.39 0.40 0.49 0.62 0.67 0.68 0.63
0.59 0.94 1.17 0.89 0.67 0.25 0.16 0.14 0.13 0.25 0.31 0.15 0.11 0.12 0.12 0.14 0.19 0.16 0.14 0.18 0.21 0.16 0.17 0.20 0.23 0.24 0.29 0.32 0.30 0.34 0.38 0.36 0.36 0.41 0.46 0.42 0.39 0.39 0.38 0.43 0.55 0.63 0.69 0.70
0.50 0.71 0.71 0.64 0.71 0.35 0.18 0.21 0.30 0.33 0.18 0.11 0.09 0.09 0.10 0.09 0.09 0.10 0.13 0.18 0.19 0.15 0.14 0.14 0.17 0.20 0.25 0.28 0.27 0.33 0.38 0.37 0.38 0.39 0.37 0.36 0.37 0.38 0.39 0.42 0.50 0.61 0.68 0.72
0.36 0.46 0.46 0.43 0.34 0.21 0.18 0.25 0.26 0.19 0.12 0.08 0.08 0.08 0.08 0.09 0.09 0.12 0.15 0.17 0.19 0.17 0.16 0.15 0.16 0.18 0.23 0.26 0.26 0.32 0.37 0.35 0.36 0.36 0.34 0.32 0.34 0.36 0.37 0.43 0.52 0.61 0.67 0.68
0.24 0.26 0.32 0.28 0.16 0.13 0.14 0.17 0.17 0.13 0.09 0.07 0.07 0.07 0.08 0.09 0.10 0.13 0.15 0.16 0.17 0.18 0.17 0.16 0.16 0.18 0.24 0.26 0.26 0.30 0.33 0.31 0.29 0.29 0.32 0.31 0.34 0.38 0.41 0.44 0.50 0.57 0.65 0.71
0.21 0.24 0.29 0.25 0.13 0.12 0.12 0.12 0.13 0.10 0.08 0.07 0.07 0.07 0.07 0.09 0.11 0.13 0.15 0.16 0.18 0.21 0.20 0.18 0.18 0.19 0.25 0.28 0.30 0.32 0.29 0.27 0.26 0.26 0.32 0.37 0.38 0.42 0.46 0.47 0.49 0.53 0.55 0.67
0.13 0.17 0.24 0.22 0.14 0.15 0.15 0.13 0.12 0.11 0.11 0.10 0.09 0.09 0.08 0.10 0.13 0.13 0.14 0.15 0.17 0.21 0.22 0.20 0.20 0.21 0.26 0.30 0.35 0.34 0.27 0.23 0.25 0.29 0.33 0.39 0.42 0.44 0.45 0.44 0.46 0.52 0.55 0.59